User: anonymous
Location: Caltech
(34.1382°N, 118.1253°W)
Time: 18:35:44
(UTC-07:00)
Language:

ALOS - Orbit

View from above orbital plane
View from above orbital plane
View from above satellite
View from above satellite

Ground track
Ground track

The orbit data is extracted from the following two-line orbital elements,

1 28931U 06002A   14294.17556446  .00001670  00000-0  34672-3 0   810
2 28931 097.9680 347.7549 0002280 119.9794 311.0976 14.61372728465727
Epoch (UTC): 21 October 2014 04:12:48
Eccentricity: 0.0002280
inclination: 97.9680°
perigee height: 687 km
apogee height: 690 km
right ascension of ascending node: 347.7549°
argument of perigee: 119.9794°
revolutions per day: 14.61372728
mean anomaly at epoch: 311.0976°
orbit number at epoch: 46572

The dashed part of the orbit path shows where the satellite is in the earth's shadow,  

DLR